Weather History for Bullhead City, AZ

Change the Weather History Date:

Friday, March 1, 2013

  Actual Average Record
Temperature  
Mean Temperature 65 °F -  
Max Temperature 77 °F 67 °F 89 °F (1999)
Min Temperature 53 °F 48 °F 41 °F (2007)
Growing Degree Days 15 (Base 50)    
Moisture  
Dew Point 21 °F    
Average Humidity 18    
Maximum Humidity 30    
Minimum Humidity 13    
Precipitation  
Precipitation 0.00 in - - ()
Sea Level Pressure  
Sea Level Pressure 30.30 in    
Wind  
Wind Speed 14 mph (North)    
Max Wind Speed 25 mph    
Max Gust Speed 33 mph    
Visibility 10 miles    
Events      
Averages and records for this station are not official NWS values.
T = Trace of Precipitation, MM = Missing Value Source: NWS Daily Summary

Daily Weather History Graph

Daily Weather History Graph

Search for Another Location

Airport:

Trip Planner

Search our weather history database for the weather conditions in past years. The results will help you decide how hot, cold, wet, or windy it might be!

Date:

Astronomy

Mar. 01, 2013 Rise Set
Actual Time 7:07 AM MST 6:34 PM MST
Civil Twilight 6:41 AM MST 6:59 PM MST
Nautical Twilight 6:12 AM MST 7:28 PM MST
Astronomical Twilight 5:43 AM MST 7:58 PM MST
Moon 10:59 PM MST (3/1) 9:07 AM MST (3/1)
Length of Visible Light 12h 17m
Length of Day
11h 26m
Waning Gibbous, 83% of the Moon is Illuminated
Mar 1
Waning Gibbous
Mar 4
Last Quarter
Mar 11
New
Mar 19
First Quarter
Mar 27
Full

Hourly Weather History & Observations

Time (MST) Temp. Dew Point Humidity Pressure Visibility Wind Dir Wind Speed Gust Speed Precip Events Conditions
12:15 AM 59.0 °F 15.8 °F 19% 30.36 in 10.0 mi North 8.1 mph - N/A   Clear
12:35 AM 57.2 °F 15.8 °F 20% 30.36 in 10.0 mi North 8.1 mph - N/A   Clear
12:55 AM 57.2 °F 14.0 °F 18% 30.36 in 10.0 mi North 5.8 mph - N/A   Clear
1:15 AM 57.2 °F 14.0 °F 18% 30.36 in 10.0 mi Calm Calm - N/A   Clear
1:55 AM 55.4 °F 19.4 °F 25% 30.36 in 10.0 mi North 6.9 mph - N/A   Clear
2:15 AM 55.4 °F 17.6 °F 23% 30.36 in 10.0 mi North 6.9 mph - N/A   Clear
2:35 AM 55.4 °F 19.4 °F 25% 30.36 in 10.0 mi North 8.1 mph - N/A   Clear
2:55 AM 53.6 °F 23.0 °F 30% 30.36 in 10.0 mi North 9.2 mph - N/A   Clear
3:15 AM 57.2 °F 14.0 °F 18% 30.35 in 10.0 mi NNE 15.0 mph - N/A   Clear
3:35 AM 59.0 °F 14.0 °F 17% 30.34 in 10.0 mi NNE 19.6 mph - N/A   Clear
4:15 AM 59.0 °F 14.0 °F 17% 30.35 in 10.0 mi NNE 20.7 mph - N/A   Clear
4:35 AM 57.2 °F 14.0 °F 18% 30.35 in 10.0 mi NE 17.3 mph - N/A   Clear
4:55 AM 57.2 °F 14.0 °F 18% 30.35 in 10.0 mi NNE 17.3 mph - N/A   Clear
5:15 AM 57.2 °F 14.0 °F 18% 30.35 in 10.0 mi North 16.1 mph - N/A   Clear
6:15 AM 57.2 °F 14.0 °F 18% 30.35 in 10.0 mi North 21.9 mph 27.6 mph N/A   Clear
6:35 AM 57.2 °F 14.0 °F 18% 30.36 in 10.0 mi North 20.7 mph - N/A   Clear
6:55 AM 57.2 °F 14.0 °F 18% 30.37 in 10.0 mi North 20.7 mph 27.6 mph N/A   Clear
7:15 AM 57.2 °F 14.0 °F 18% 30.37 in 10.0 mi North 23.0 mph - N/A   Clear
7:35 AM 57.2 °F 14.0 °F 18% 30.38 in 10.0 mi North 18.4 mph 25.3 mph N/A   Clear
7:55 AM 57.2 °F 15.8 °F 20% 30.39 in 10.0 mi North 20.7 mph - N/A   Clear
8:15 AM 57.2 °F 15.8 °F 20% 30.39 in 10.0 mi North 18.4 mph - N/A   Clear
8:35 AM 59.0 °F 15.8 °F 19% 30.40 in 10.0 mi North 18.4 mph 25.3 mph N/A   Clear
8:55 AM 59.0 °F 15.8 °F 19% 30.40 in 10.0 mi North 19.6 mph - N/A   Clear
9:15 AM 60.8 °F 15.8 °F 17% 30.39 in 10.0 mi North 21.9 mph 26.5 mph N/A   Clear
9:35 AM 62.6 °F 15.8 °F 16% 30.39 in 10.0 mi North 19.6 mph 27.6 mph N/A   Clear
10:15 AM 64.4 °F 15.8 °F 15% 30.37 in 10.0 mi North 24.2 mph 28.8 mph N/A   Clear
10:35 AM 64.4 °F 17.6 °F 16% 30.37 in 10.0 mi North 19.6 mph 31.1 mph N/A   Clear
10:55 AM 66.2 °F 17.6 °F 15% 30.37 in 10.0 mi North 19.6 mph 29.9 mph N/A   Unknown
11:15 AM 68.0 °F 17.6 °F 15% 30.36 in 10.0 mi North 19.6 mph 26.5 mph N/A   Clear
11:35 AM 68.0 °F 17.6 °F 15% 30.35 in 10.0 mi North 25.3 mph 31.1 mph N/A   Clear
11:55 AM 69.8 °F 17.6 °F 14% 30.35 in 10.0 mi North 20.7 mph 31.1 mph N/A   Clear
12:15 PM 69.8 °F 19.4 °F 15% 30.34 in 10.0 mi North 23.0 mph 33.4 mph N/A   Clear
12:35 PM 71.6 °F 19.4 °F 14% 30.32 in 10.0 mi North 24.2 mph 31.1 mph N/A   Clear
12:55 PM 71.6 °F 19.4 °F 14% 30.31 in 10.0 mi North 23.0 mph 31.1 mph N/A   Clear
1:15 PM 73.4 °F 19.4 °F 13% 30.30 in 10.0 mi North 24.2 mph 29.9 mph N/A   Clear
1:35 PM 73.4 °F 19.4 °F 13% 30.28 in 10.0 mi North 23.0 mph 31.1 mph N/A   Clear
1:55 PM 73.4 °F 21.2 °F 14% 30.28 in 10.0 mi North 20.7 mph 31.1 mph N/A   Clear
2:15 PM 75.2 °F 21.2 °F 13% 30.26 in 10.0 mi North 24.2 mph 28.8 mph N/A   Clear
2:35 PM 75.2 °F 23.0 °F 14% 30.26 in 10.0 mi North 25.3 mph 29.9 mph N/A   Clear
2:55 PM 75.2 °F 24.8 °F 15% 30.25 in 10.0 mi North 21.9 mph - N/A   Clear
3:15 PM 75.2 °F 24.8 °F 15% 30.24 in 10.0 mi NNW 21.9 mph 26.5 mph N/A   Clear
3:35 PM 77.0 °F 24.8 °F 14% 30.23 in 10.0 mi NNW 25.3 mph 28.8 mph N/A   Clear
3:55 PM 77.0 °F 26.6 °F 16% 30.23 in 10.0 mi NNW 21.9 mph - N/A   Clear
4:15 PM 77.0 °F 26.6 °F 16% 30.22 in 10.0 mi NNW 21.9 mph - N/A   Clear
4:35 PM 77.0 °F 26.6 °F 16% 30.22 in 10.0 mi NNW 17.3 mph 24.2 mph N/A   Clear
4:55 PM 77.0 °F 26.6 °F 16% 30.22 in 10.0 mi NNW 19.6 mph 24.2 mph N/A   Clear
5:15 PM 77.0 °F 26.6 °F 16% 30.22 in 10.0 mi NNW 17.3 mph 24.2 mph N/A   Clear
5:35 PM 77.0 °F 26.6 °F 16% 30.21 in 10.0 mi NNW 20.7 mph 24.2 mph N/A   Clear
5:55 PM 75.2 °F 26.6 °F 17% 30.22 in 10.0 mi North 16.1 mph 23.0 mph N/A   Clear
6:15 PM 75.2 °F 28.4 °F 18% 30.22 in 10.0 mi North 16.1 mph - N/A   Clear
6:35 PM 73.4 °F 28.4 °F 19% 30.22 in 10.0 mi North 10.4 mph - N/A   Clear
6:55 PM 73.4 °F 26.6 °F 18% 30.22 in 10.0 mi North 10.4 mph - N/A   Clear
7:15 PM 73.4 °F 26.6 °F 18% 30.22 in 10.0 mi North 10.4 mph 16.1 mph N/A   Clear
7:35 PM 71.6 °F 26.6 °F 19% 30.22 in 10.0 mi North 8.1 mph - N/A   Clear
7:55 PM 71.6 °F 26.6 °F 19% 30.23 in 10.0 mi NNE 3.5 mph - N/A   Clear
8:35 PM 71.6 °F 26.6 °F 19% 30.23 in 10.0 mi NNE 12.7 mph - N/A   Clear
8:55 PM 71.6 °F 26.6 °F 19% 30.23 in 10.0 mi NNE 11.5 mph - N/A   Clear
9:15 PM 69.8 °F 26.6 °F 20% 30.23 in 10.0 mi NNE 9.2 mph - N/A   Clear
9:35 PM 68.0 °F 26.6 °F 21% 30.24 in 10.0 mi Calm Calm - N/A   Clear
9:55 PM 68.0 °F 26.6 °F 21% 30.24 in 10.0 mi Calm Calm - N/A   Clear
10:15 PM 66.2 °F 28.4 °F 24% 30.24 in 10.0 mi NE 6.9 mph - N/A   Clear
10:35 PM 66.2 °F 28.4 °F 24% 30.24 in 10.0 mi Calm Calm - N/A   Clear
10:55 PM 66.2 °F 30.2 °F 26% 30.25 in 10.0 mi Calm Calm - N/A   Clear
11:15 PM 64.4 °F 32.0 °F 30% 30.26 in 10.0 mi North 6.9 mph - N/A   Clear
11:35 PM 64.4 °F 32.0 °F 30% 30.26 in 10.0 mi NNE 3.5 mph - N/A   Clear
11:55 PM 64.4 °F 30.2 °F 28% 30.26 in 10.0 mi Calm Calm - N/A   Clear